User: anonymous   Login
Location: Bangkok
(13.7500°N, 100.5170°E)
Time: 10:31:00
(UTC+07:00)
Language:

Cosmos 1802 Rocket - Orbit

View from above orbital plane
View from above orbital plane
View from above satellite
View from above satellite

Ground track
Ground track

The orbit data is extracted from the following two-line orbital elements,

1 17160U 86093B   18048.59060138 +.00000099 +00000-0 +87507-4 0  9993
2 17160 082.9245 242.2435 0038863 183.1056 253.7335 13.74605632566317
Epoch (UTC): 17 February 2018 14:10:27
Eccentricity: 0.0038863
inclination: 82.9245°
perigee height: 954 km
apogee height: 1011 km
right ascension of ascending node: 242.2435°
argument of perigee: 183.1056°
revolutions per day: 13.74605632
mean anomaly at epoch: 253.7335°
orbit number at epoch: 56631

The dashed part of the orbit path shows where the satellite is in the earth's shadow,  

DLR